Zurück zum Katalog

THOR ABLESTAR DEB

AktivLEO
NORAD 232·DEBRIS·🇺🇸 United States

Gestartet Jun 29, 1961 von Cape Canaveral Space Force Station

Loading…

Nächste Überflüge (nächste 24 Stunden)

TLE

AktuellSource: Space-Track

Epoche: Sep 14, 2026, 05:18 UTC

1 00232U 61015BQ  26257.22085011  .00000091  00000-0  11194-3 0  9990
2 00232  66.8232 352.6423 0052548  36.4461 324.0182 14.00831598319461

Verfolge THOR ABLESTAR DEB in Echtzeit mit AllMySat

Download on the App Store